Volver al catálogo

STARLINK-37278

ActivoComunicacionesSSO
NORAD 68733·PAYLOAD·🇺🇸 United States

Lanzado Apr 15, 2026 desde Vandenberg Space Force Base

Loading…

Próximos Pases (próximas 24 horas)

TLE

ActualizadoSource: CelesTrak SupGP

Época: Sep 14, 2026, 15:07 UTC

1 68733C 26082F   26257.63034722 -.00025424  00000+0 -78921-3 0  2579
2 68733  97.2843 119.9463 0001676  89.8274 183.9975 15.33452146    10

Sigue STARLINK-37278 en tiempo real con AllMySat

Download on the App Store